• In Österreich
  • Länderverzeichnis
  • Für 7 Tage
  • Wassertemperatur
  • Satellitenkarten
  • Wetterkarte
  • News
  • Widgets
  • user-avatar
    Anmelden

    Stündliche Wetter Kericho

    Heute, 19 November, Sonntag

    Zeit Temperatur Niederschläge Wind Luftdruck Luftfeuchtigkeit
    00:00 +15°C° 0 mm 2 m/S 597 mmHg 84%
    01:00 +14°C° 0 mm 2 m/S 597 mmHg 85%
    02:00 +14°C° 0 mm 2 m/S 596 mmHg 88%
    03:00 +14°C° 0 mm 2 m/S 596 mmHg 87%
    04:00 +13°C° 0 mm 2 m/S 596 mmHg 86%
    05:00 +13°C° 0 mm 2 m/S 597 mmHg 85%
    06:00 +15°C° 0 mm 2 m/S 598 mmHg 76%
    07:00 +18°C° 0 mm 2 m/S 599 mmHg 67%
    08:00 +20°C° 0 mm 2 m/S 600 mmHg 58%
    09:00 +23°C° 0 mm 2 m/S 600 mmHg 51%
    10:00 +25°C° 0 mm 2 m/S 601 mmHg 44%
    11:00 +27°C° 0 mm 2 m/S 602 mmHg 37%
    12:00 +26°C° 0,1 mm 2 m/S 600 mmHg 43%
    13:00 +24°C° 0,1 mm 2 m/S 599 mmHg 49%
    14:00 +23°C° 0,1 mm 1 m/S 598 mmHg 55%
    15:00 +22°C° 0,4 mm 1 m/S 598 mmHg 62%
    16:00 +20°C° 0,4 mm 1 m/S 597 mmHg 69%
    17:00 +19°C° 0,4 mm 1 m/S 597 mmHg 75%
    18:00 +18°C° 0,2 mm 1 m/S 597 mmHg 78%
    19:00 +18°C° 0,2 mm 1 m/S 597 mmHg 81%
    20:00 +16°C° 0,2 mm 1 m/S 598 mmHg 83%
    21:00 +16°C° 0,1 mm 1 m/S 598 mmHg 85%
    22:00 +15°C° 0,1 mm 1 m/S 598 mmHg 86%
    23:00 +15°C° 0,1 mm 2 m/S 598 mmHg 87%

    Morgen, 20 November, Montag

    Zeit Temperatur Niederschläge Wind Luftdruck Luftfeuchtigkeit
    00:00 +14°C° 0 mm 2 m/S 598 mmHg 89%
    01:00 +14°C° 0 mm 2 m/S 597 mmHg 90%
    02:00 +13°C° 0 mm 2 m/S 597 mmHg 92%
    03:00 +13°C° 0 mm 2 m/S 597 mmHg 91%
    04:00 +13°C° 0 mm 2 m/S 597 mmHg 91%
    05:00 +13°C° 0 mm 2 m/S 597 mmHg 91%
    06:00 +15°C° 0 mm 2 m/S 598 mmHg 81%
    07:00 +17°C° 0 mm 2 m/S 599 mmHg 72%
    08:00 +20°C° 0 mm 2 m/S 600 mmHg 62%
    09:00 +23°C° 0 mm 2 m/S 601 mmHg 54%
    10:00 +25°C° 0 mm 2 m/S 601 mmHg 46%
    11:00 +27°C° 0 mm 1 m/S 602 mmHg 39%
    12:00 +25°C° 0,7 mm 1 m/S 600 mmHg 49%
    13:00 +23°C° 0,7 mm 1 m/S 599 mmHg 60%
    14:00 +21°C° 0,7 mm 1 m/S 597 mmHg 70%
    15:00 +20°C° 0,6 mm 1 m/S 597 mmHg 74%
    16:00 +19°C° 0,6 mm 1 m/S 597 mmHg 78%
    17:00 +18°C° 0,6 mm 1 m/S 596 mmHg 82%
    18:00 +18°C° 0,1 mm 1 m/S 597 mmHg 84%
    19:00 +16°C° 0,1 mm 1 m/S 597 mmHg 86%
    20:00 +15°C° 0,1 mm 1 m/S 597 mmHg 88%
    21:00 +15°C° 0 mm 1 m/S 598 mmHg 89%
    22:00 +15°C° 0 mm 1 m/S 598 mmHg 89%
    23:00 +14°C° 0 mm 1 m/S 598 mmHg 90%

    übermorgen, 21 November, Dienstag

    Zeit Temperatur Niederschläge Wind Luftdruck Luftfeuchtigkeit
    00:00 +14°C° 0 mm 1 m/S 597 mmHg 91%
    01:00 +14°C° 0 mm 1 m/S 597 mmHg 92%
    02:00 +13°C° 0 mm 1 m/S 596 mmHg 92%
    03:00 +13°C° 0 mm 2 m/S 596 mmHg 92%
    04:00 +13°C° 0 mm 2 m/S 596 mmHg 92%
    05:00 +13°C° 0 mm 2 m/S 596 mmHg 91%
    06:00 +15°C° 0 mm 2 m/S 597 mmHg 82%
    07:00 +18°C° 0 mm 2 m/S 598 mmHg 72%
    08:00 +20°C° 0 mm 2 m/S 600 mmHg 62%
    09:00 +23°C° 0 mm 1 m/S 600 mmHg 54%
    10:00 +26°C° 0 mm 1 m/S 601 mmHg 45%
    11:00 +28°C° 0 mm 1 m/S 601 mmHg 37%
    12:00 +26°C° 0,2 mm 1 m/S 600 mmHg 45%
    13:00 +24°C° 0,2 mm 1 m/S 598 mmHg 54%
    14:00 +23°C° 0,2 mm 1 m/S 597 mmHg 62%
    15:00 +21°C° 0,9 mm 1 m/S 596 mmHg 68%
    16:00 +20°C° 0,9 mm 1 m/S 596 mmHg 73%
    17:00 +19°C° 0,9 mm 1 m/S 595 mmHg 78%
    18:00 +18°C° 1,5 mm 1 m/S 596 mmHg 82%
    19:00 +18°C° 1,5 mm 1 m/S 596 mmHg 86%
    20:00 +16°C° 1,5 mm 1 m/S 597 mmHg 89%
    21:00 +16°C° 0,4 mm 1 m/S 597 mmHg 90%
    22:00 +16°C° 0,4 mm 1 m/S 597 mmHg 91%
    23:00 +15°C° 0,4 mm 1 m/S 597 mmHg 91%

    22 November, Mittwoch

    Zeit Temperatur Niederschläge Wind Luftdruck Luftfeuchtigkeit
    00:00 +15°C° 0,1 mm 1 m/S 596 mmHg 91%
    01:00 +15°C° 0,1 mm 1 m/S 596 mmHg 91%
    02:00 +15°C° 0,1 mm 1 m/S 596 mmHg 92%
    03:00 +15°C° 0 mm 1 m/S 596 mmHg 92%
    04:00 +14°C° 0 mm 1 m/S 596 mmHg 93%
    05:00 +14°C° 0 mm 1 m/S 596 mmHg 93%
    06:00 +16°C° 0 mm 1 m/S 597 mmHg 86%
    07:00 +19°C° 0 mm 1 m/S 598 mmHg 78%
    08:00 +21°C° 0 mm 1 m/S 599 mmHg 70%
    09:00 +22°C° 0,6 mm 1 m/S 599 mmHg 67%
    10:00 +23°C° 0,6 mm 1 m/S 599 mmHg 64%
    11:00 +25°C° 0,6 mm 1 m/S 599 mmHg 60%
    12:00 +24°C° 1,5 mm 1 m/S 598 mmHg 64%
    13:00 +23°C° 1,5 mm 1 m/S 597 mmHg 69%
    14:00 +22°C° 1,5 mm 1 m/S 596 mmHg 73%
    15:00 +19°C° 1,5 mm 0 m/S 596 mmHg 77%
    16:00 +18°C° 1,5 mm 0 m/S 596 mmHg 81%
    17:00 +17°C° 1,5 mm 0 m/S 596 mmHg 85%
    18:00 +18°C° 1,9 mm 1 m/S 596 mmHg 87%
    19:00 +18°C° 1,9 mm 1 m/S 597 mmHg 88%
    20:00 +16°C° 1,9 mm 1 m/S 597 mmHg 90%
    21:00 +16°C° 1,2 mm 1 m/S 597 mmHg 91%
    22:00 +16°C° 1,2 mm 1 m/S 597 mmHg 92%
    23:00 +15°C° 1,2 mm 1 m/S 597 mmHg 92%

    23 November, Donnerstag

    Zeit Temperatur Niederschläge Wind Luftdruck Luftfeuchtigkeit
    00:00 +15°C° 0,2 mm 1 m/S 596 mmHg 92%
    01:00 +15°C° 0,2 mm 1 m/S 596 mmHg 92%
    02:00 +15°C° 0,2 mm 1 m/S 595 mmHg 92%
    03:00 +15°C° 0 mm 1 m/S 595 mmHg 92%
    04:00 +14°C° 0 mm 2 m/S 596 mmHg 92%
    05:00 +14°C° 0 mm 2 m/S 596 mmHg 92%
    06:00 +16°C° 0 mm 2 m/S 597 mmHg 85%
    07:00 +19°C° 0 mm 1 m/S 598 mmHg 78%
    08:00 +20°C° 0 mm 1 m/S 599 mmHg 71%
    09:00 +21°C° 0,3 mm 1 m/S 599 mmHg 68%
    10:00 +22°C° 0,3 mm 1 m/S 599 mmHg 64%
    11:00 +23°C° 0,3 mm 1 m/S 599 mmHg 61%
    12:00 +23°C° 0,6 mm 1 m/S 598 mmHg 64%
    13:00 +23°C° 0,6 mm 1 m/S 597 mmHg 67%
    14:00 +20°C° 0,6 mm 0 m/S 597 mmHg 69%
    15:00 +19°C° 0,5 mm 0 m/S 596 mmHg 74%
    16:00 +20°C° 0,5 mm 1 m/S 596 mmHg 78%
    17:00 +19°C° 0,5 mm 1 m/S 596 mmHg 83%
    18:00 +18°C° 0,7 mm 1 m/S 596 mmHg 85%
    19:00 +16°C° 0,7 mm 1 m/S 597 mmHg 88%
    20:00 +16°C° 0,7 mm 1 m/S 597 mmHg 91%
    21:00 +16°C° 0,2 mm 1 m/S 597 mmHg 91%
    22:00 +15°C° 0,2 mm 1 m/S 597 mmHg 92%
    23:00 +15°C° 0,2 mm 1 m/S 597 mmHg 93%

    24 November, Freitag

    Zeit Temperatur Niederschläge Wind Luftdruck Luftfeuchtigkeit
    00:00 +15°C° 0,1 mm 1 m/S 596 mmHg 93%
    01:00 +14°C° 0,1 mm 1 m/S 596 mmHg 93%
    02:00 +14°C° 0,1 mm 1 m/S 595 mmHg 94%
    03:00 +14°C° 0 mm 1 m/S 596 mmHg 94%
    04:00 +13°C° 0 mm 1 m/S 596 mmHg 94%
    05:00 +13°C° 0 mm 1 m/S 596 mmHg 93%
    06:00 +15°C° 0 mm 1 m/S 597 mmHg 85%
    07:00 +18°C° 0 mm 1 m/S 598 mmHg 77%
    08:00 +21°C° 0 mm 1 m/S 599 mmHg 69%
    09:00 +22°C° 0,5 mm 1 m/S 599 mmHg 65%
    10:00 +23°C° 0,5 mm 1 m/S 599 mmHg 61%
    11:00 +24°C° 0,5 mm 2 m/S 599 mmHg 57%
    12:00 +23°C° 1,2 mm 1 m/S 598 mmHg 64%
    13:00 +22°C° 1,2 mm 1 m/S 597 mmHg 71%
    14:00 +21°C° 1,2 mm 1 m/S 596 mmHg 78%
    15:00 +20°C° 1,8 mm 1 m/S 596 mmHg 82%
    16:00 +19°C° 1,8 mm 1 m/S 596 mmHg 86%
    17:00 +18°C° 1,8 mm 1 m/S 596 mmHg 91%
    18:00 +16°C° 1 mm 1 m/S 596 mmHg 91%
    19:00 +16°C° 1 mm 1 m/S 597 mmHg 92%
    20:00 +15°C° 1 mm 1 m/S 597 mmHg 92%
    21:00 +15°C° 0,1 mm 1 m/S 597 mmHg 93%
    22:00 +14°C° 0,1 mm 1 m/S 597 mmHg 94%
    23:00 +14°C° 0,1 mm 1 m/S 596 mmHg 94%
    Mehr zeigen